Location: *
(43.9905°S, 176.4941°W)
Time: 00:52:38
(UTC+00:00)

Spot 2 Rocket - Pass Details

Date: 08 December 2019
Orbit: 757 x 773 km, 98.6° (Epoch: 27 January)

Event Time Altitude Azimuth Distance (km) Brightness Sun altitude
Rises 09:31:56 0° 165° (SSE) 3,273 7.5 -17.3°
Reaches altitude 10° 09:34:16 10° 163° (SSE) 2,341 6.6 -17.6°
Maximum altitude 09:39:26 75° 77° (ENE) 811 3.5 -18.0°
Enters shadow 09:42:13 28° 356° (N) 1,430 4.4 -18.2°
